Time,TemperatureF,DewpointF,PressureIn,WindDirection,WindDirectionDegrees,WindSpeedMPH,WindSpeedGustMPH,Humidity,HourlyPrecipIn,Conditions,Clouds,dailyrainin,SoftwareType,DateUTC
2013-05-17 00:02:00,55.3,49.1,29.66,North,0,0.0,0.0,80,0.00,,,0.00,WUHU216HW,2013-05-17 07:02:00,
2013-05-17 00:07:00,55.3,49.1,29.66,North,0,0.0,0.0,80,0.00,,,0.00,WUHU216HW,2013-05-17 07:07:00,
2013-05-17 00:12:00,55.3,49.1,29.66,North,0,0.0,0.0,80,0.00,,,0.00,WUHU216HW,2013-05-17 07:12:00,
2013-05-17 00:17:00,55.3,49.1,29.66,North,0,0.0,0.0,80,0.00,,,0.00,WUHU216HW,2013-05-17 07:17:00,
2013-05-17 00:22:00,55.3,49.1,29.66,North,0,0.0,0.0,80,0.00,,,0.00,WUHU216HW,2013-05-17 07:22:00,
2013-05-17 00:27:00,55.3,49.1,29.66,North,0,0.0,0.0,80,0.00,,,0.00,WUHU216HW,2013-05-17 07:27:00,
2013-05-17 00:32:00,55.3,49.1,29.66,North,0,0.0,0.0,80,0.00,,,0.00,WUHU216HW,2013-05-17 07:32:00,
2013-05-17 00:37:00,55.3,49.1,29.66,North,0,0.0,0.0,80,0.00,,,0.00,WUHU216HW,2013-05-17 07:37:00,
2013-05-17 00:42:00,55.3,49.1,29.66,North,0,0.0,0.0,80,0.00,,,0.00,WUHU216HW,2013-05-17 07:42:00,
2013-05-17 00:47:00,55.1,49.0,29.66,North,0,0.0,0.0,80,0.00,,,0.00,WUHU216HW,2013-05-17 07:47:00,
2013-05-17 00:52:00,55.1,49.0,29.66,North,0,0.0,0.0,80,0.00,,,0.00,WUHU216HW,2013-05-17 07:52:00,
2013-05-17 00:57:00,55.1,49.0,29.66,North,0,0.0,0.0,80,0.00,,,0.00,WUHU216HW,2013-05-17 07:57:00,
2013-05-17 01:02:00,55.1,49.3,29.66,North,0,0.0,0.0,81,0.00,,,0.00,WUHU216HW,2013-05-17 08:02:00,
2013-05-17 01:07:00,55.1,49.3,29.65,North,0,0.0,0.0,81,0.00,,,0.00,WUHU216HW,2013-05-17 08:07:00,
2013-05-17 01:12:00,54.9,49.1,29.66,North,0,0.0,0.0,81,0.00,,,0.00,WUHU216HW,2013-05-17 08:12:00,
2013-05-17 01:17:00,54.7,49.0,29.66,North,0,0.0,0.0,81,0.00,,,0.00,WUHU216HW,2013-05-17 08:17:00,
2013-05-17 01:22:00,54.7,49.0,29.65,North,0,0.0,0.0,81,0.00,,,0.00,WUHU216HW,2013-05-17 08:22:00,
2013-05-17 01:27:00,54.7,49.0,29.65,North,0,0.0,0.0,81,0.00,,,0.00,WUHU216HW,2013-05-17 08:27:00,
2013-05-17 01:32:00,54.7,49.0,29.66,North,0,0.0,0.0,81,0.00,,,0.00,WUHU216HW,2013-05-17 08:32:00,
2013-05-17 01:37:00,54.5,49.1,29.66,North,0,0.0,0.0,82,0.00,,,0.00,WUHU216HW,2013-05-17 08:37:00,
2013-05-17 01:42:00,54.5,49.1,29.66,North,0,0.0,0.0,82,0.00,,,0.00,WUHU216HW,2013-05-17 08:42:00,
2013-05-17 01:47:00,54.5,49.1,29.66,North,0,0.0,0.0,82,0.00,,,0.00,WUHU216HW,2013-05-17 08:47:00,
2013-05-17 01:52:00,54.5,49.1,29.66,North,0,0.0,0.0,82,0.00,,,0.00,WUHU216HW,2013-05-17 08:52:00,
2013-05-17 01:57:00,54.5,49.1,29.66,North,0,0.0,0.0,82,0.00,,,0.00,WUHU216HW,2013-05-17 08:57:00,
2013-05-17 02:02:00,54.5,49.1,29.66,North,0,0.0,0.0,82,0.00,,,0.00,WUHU216HW,2013-05-17 09:02:00,
2013-05-17 02:07:00,54.5,49.1,29.66,North,0,0.0,0.0,82,0.00,,,0.00,WUHU216HW,2013-05-17 09:07:00,
2013-05-17 02:12:00,54.7,49.3,29.66,North,0,0.0,0.0,82,0.00,,,0.00,WUHU216HW,2013-05-17 09:12:00,
2013-05-17 02:17:00,54.7,49.3,29.65,North,0,0.0,0.0,82,0.00,,,0.00,WUHU216HW,2013-05-17 09:17:00,
2013-05-17 02:22:00,54.7,49.3,29.65,North,0,0.0,0.0,82,0.00,,,0.00,WUHU216HW,2013-05-17 09:22:00,
2013-05-17 02:27:00,54.7,49.3,29.66,North,0,0.0,0.0,82,0.00,,,0.00,WUHU216HW,2013-05-17 09:27:00,
2013-05-17 02:32:00,54.7,49.3,29.66,North,0,0.0,0.0,82,0.00,,,0.00,WUHU216HW,2013-05-17 09:32:00,
2013-05-17 02:37:00,54.7,49.3,29.66,North,0,0.0,0.0,82,0.00,,,0.00,WUHU216HW,2013-05-17 09:37:00,
2013-05-17 02:42:00,54.7,49.3,29.66,North,0,0.0,0.0,82,0.00,,,0.00,WUHU216HW,2013-05-17 09:42:00,
2013-05-17 02:47:00,54.7,49.3,29.66,North,0,0.0,0.0,82,0.00,,,0.00,WUHU216HW,2013-05-17 09:47:00,
2013-05-17 02:52:00,54.7,49.3,29.66,North,0,0.0,0.0,82,0.00,,,0.00,WUHU216HW,2013-05-17 09:52:00,
2013-05-17 02:57:00,54.9,49.5,29.66,North,0,0.0,0.0,82,0.00,,,0.00,WUHU216HW,2013-05-17 09:57:00,
2013-05-17 03:02:00,54.9,49.5,29.66,North,0,0.0,0.0,82,0.00,,,0.00,WUHU216HW,2013-05-17 10:02:00,
2013-05-17 03:07:00,54.9,49.5,29.66,North,0,0.0,0.0,82,0.00,,,0.00,WUHU216HW,2013-05-17 10:07:00,
2013-05-17 03:12:00,55.1,49.7,29.66,North,0,0.0,0.0,82,0.00,,,0.00,WUHU216HW,2013-05-17 10:12:00,
2013-05-17 03:17:00,55.1,49.7,29.66,North,0,0.0,0.0,82,0.00,,,0.00,WUHU216HW,2013-05-17 10:17:00,
2013-05-17 03:22:00,55.1,49.7,29.66,North,0,0.0,0.0,82,0.00,,,0.00,WUHU216HW,2013-05-17 10:22:00,
2013-05-17 03:27:00,55.1,49.7,29.66,North,0,0.0,0.0,82,0.00,,,0.00,WUHU216HW,2013-05-17 10:27:00,
2013-05-17 03:32:00,55.1,49.7,29.66,North,0,0.0,0.0,82,0.00,,,0.00,WUHU216HW,2013-05-17 10:32:00,
2013-05-17 03:37:00,55.1,49.7,29.66,North,0,0.0,0.0,82,0.00,,,0.00,WUHU216HW,2013-05-17 10:37:00,
2013-05-17 03:42:00,55.1,49.7,29.66,North,0,0.0,0.0,82,0.00,,,0.00,WUHU216HW,2013-05-17 10:42:00,
2013-05-17 03:47:00,55.1,49.7,29.66,North,0,0.0,0.0,82,0.00,,,0.00,WUHU216HW,2013-05-17 10:47:00,
2013-05-17 03:52:00,55.1,49.7,29.66,North,0,0.0,0.0,82,0.00,,,0.00,WUHU216HW,2013-05-17 10:52:00,
2013-05-17 03:57:00,55.1,49.7,29.66,North,0,0.0,0.0,82,0.00,,,0.00,WUHU216HW,2013-05-17 10:57:00,
2013-05-17 04:02:00,55.1,49.3,29.66,North,0,0.0,0.0,81,0.00,,,0.00,WUHU216HW,2013-05-17 11:02:00,
2013-05-17 04:07:00,55.1,49.3,29.66,North,0,0.0,0.0,81,0.00,,,0.00,WUHU216HW,2013-05-17 11:07:00,
2013-05-17 04:12:00,55.1,49.3,29.66,North,0,0.0,0.0,81,0.00,,,0.00,WUHU216HW,2013-05-17 11:12:00,
2013-05-17 04:17:00,55.1,49.3,29.67,North,0,0.0,0.0,81,0.00,,,0.00,WUHU216HW,2013-05-17 11:17:00,
2013-05-17 04:22:00,55.1,49.0,29.67,North,0,0.0,0.0,80,0.00,,,0.00,WUHU216HW,2013-05-17 11:22:00,
2013-05-17 04:27:00,55.1,49.0,29.67,North,0,0.0,0.0,80,0.00,,,0.00,WUHU216HW,2013-05-17 11:27:00,
2013-05-17 04:32:00,55.1,49.0,29.67,North,0,0.0,0.0,80,0.00,,,0.00,WUHU216HW,2013-05-17 11:32:00,
2013-05-17 04:37:00,55.1,49.0,29.67,North,0,0.0,0.0,80,0.00,,,0.00,WUHU216HW,2013-05-17 11:37:00,
2013-05-17 04:42:00,55.1,49.3,29.67,North,0,0.0,0.0,81,0.00,,,0.00,WUHU216HW,2013-05-17 11:42:00,
2013-05-17 04:47:00,54.9,49.1,29.66,North,0,0.0,0.0,81,0.00,,,0.00,WUHU216HW,2013-05-17 11:47:00,
2013-05-17 04:52:00,54.9,49.1,29.67,North,0,0.0,0.0,81,0.00,,,0.00,WUHU216HW,2013-05-17 11:52:00,
2013-05-17 04:57:00,54.9,49.1,29.67,North,0,0.0,0.0,81,0.00,,,0.00,WUHU216HW,2013-05-17 11:57:00,
2013-05-17 05:02:00,54.7,49.3,29.67,North,0,0.0,0.0,82,0.00,,,0.00,WUHU216HW,2013-05-17 12:02:00,
2013-05-17 05:07:00,54.7,49.3,29.67,North,0,0.0,0.0,82,0.00,,,0.00,WUHU216HW,2013-05-17 12:07:00,
2013-05-17 05:12:00,54.7,49.3,29.66,North,0,0.0,0.0,82,0.00,,,0.00,WUHU216HW,2013-05-17 12:12:00,
2013-05-17 05:17:00,54.5,49.1,29.67,North,0,0.0,0.0,82,0.00,,,0.00,WUHU216HW,2013-05-17 12:17:00,
2013-05-17 05:22:00,54.5,49.1,29.67,North,0,0.0,0.0,82,0.00,,,0.00,WUHU216HW,2013-05-17 12:22:00,
2013-05-17 05:27:00,54.5,49.4,29.67,North,0,0.0,0.0,83,0.00,,,0.00,WUHU216HW,2013-05-17 12:27:00,
2013-05-17 05:32:00,54.5,49.4,29.67,North,0,0.0,0.0,83,0.00,,,0.00,WUHU216HW,2013-05-17 12:32:00,
2013-05-17 05:37:00,54.5,49.4,29.67,North,0,0.0,0.0,83,0.00,,,0.00,WUHU216HW,2013-05-17 12:37:00,
2013-05-17 05:42:00,54.4,49.3,29.67,North,0,0.0,0.0,83,0.00,,,0.00,WUHU216HW,2013-05-17 12:42:00,
2013-05-17 05:47:00,54.4,49.3,29.67,North,0,0.0,0.0,83,0.00,,,0.00,WUHU216HW,2013-05-17 12:47:00,
2013-05-17 05:52:00,54.4,49.6,29.67,North,0,0.0,0.0,84,0.00,,,0.00,WUHU216HW,2013-05-17 12:52:00,
2013-05-17 05:57:00,54.4,49.3,29.67,North,0,0.0,0.0,83,0.00,,,0.00,WUHU216HW,2013-05-17 12:57:00,
2013-05-17 06:02:00,54.4,49.6,29.67,North,0,0.0,0.0,84,0.00,,,0.00,WUHU216HW,2013-05-17 13:02:00,
2013-05-17 06:07:00,54.4,49.6,29.67,North,0,0.0,0.0,84,0.00,,,0.00,WUHU216HW,2013-05-17 13:07:00,
2013-05-17 06:12:00,54.4,49.6,29.67,North,0,0.0,0.0,84,0.00,,,0.00,WUHU216HW,2013-05-17 13:12:00,
2013-05-17 06:17:00,54.4,49.6,29.67,North,0,0.0,0.0,84,0.00,,,0.00,WUHU216HW,2013-05-17 13:17:00,
2013-05-17 06:22:00,54.4,49.6,29.68,North,0,0.0,0.0,84,0.00,,,0.00,WUHU216HW,2013-05-17 13:22:00,
2013-05-17 06:27:00,54.4,50.0,29.68,North,0,0.0,0.0,85,0.00,,,0.00,WUHU216HW,2013-05-17 13:27:00,
2013-05-17 06:32:00,54.4,49.6,29.68,North,0,0.0,0.0,84,0.00,,,0.00,WUHU216HW,2013-05-17 13:32:00,
2013-05-17 06:37:00,54.4,50.0,29.68,North,0,0.0,0.0,85,0.00,,,0.00,WUHU216HW,2013-05-17 13:37:00,
2013-05-17 06:42:00,54.4,50.0,29.68,North,0,0.0,0.0,85,0.00,,,0.00,WUHU216HW,2013-05-17 13:42:00,
2013-05-17 06:47:00,54.5,50.1,29.68,North,0,0.0,0.0,85,0.00,,,0.00,WUHU216HW,2013-05-17 13:47:00,
2013-05-17 06:52:00,54.5,50.1,29.68,North,0,0.0,0.0,85,0.00,,,0.00,WUHU216HW,2013-05-17 13:52:00,
2013-05-17 06:57:00,54.7,50.2,29.68,North,0,0.0,0.0,85,0.00,,,0.00,WUHU216HW,2013-05-17 13:57:00,
2013-05-17 07:02:00,54.5,50.1,29.68,North,0,0.0,0.0,85,0.00,,,0.00,WUHU216HW,2013-05-17 14:02:00,
2013-05-17 07:07:00,54.5,50.1,29.68,North,0,0.0,0.0,85,0.00,,,0.00,WUHU216HW,2013-05-17 14:07:00,
2013-05-17 07:12:00,54.7,50.2,29.68,North,0,0.0,0.0,85,0.00,,,0.00,WUHU216HW,2013-05-17 14:12:00,
2013-05-17 07:17:00,54.7,50.6,29.68,North,0,0.0,0.0,86,0.00,,,0.00,WUHU216HW,2013-05-17 14:17:00,
2013-05-17 07:22:00,54.7,50.2,29.68,North,0,0.0,0.0,85,0.00,,,0.00,WUHU216HW,2013-05-17 14:22:00,
2013-05-17 07:27:00,54.7,50.2,29.68,North,0,0.0,0.0,85,0.00,,,0.00,WUHU216HW,2013-05-17 14:27:00,
2013-05-17 07:32:00,54.7,50.6,29.68,North,0,0.0,0.0,86,0.00,,,0.00,WUHU216HW,2013-05-17 14:32:00,
2013-05-17 07:37:00,54.7,50.2,29.69,North,0,0.0,0.0,85,0.00,,,0.00,WUHU216HW,2013-05-17 14:37:00,
2013-05-17 07:42:00,54.7,50.6,29.69,North,0,0.0,0.0,86,0.00,,,0.00,WUHU216HW,2013-05-17 14:42:00,
2013-05-17 07:47:00,54.7,50.6,29.69,North,0,0.0,0.0,86,0.00,,,0.00,WUHU216HW,2013-05-17 14:47:00,
2013-05-17 07:52:00,55.1,51.0,29.69,North,0,0.0,0.0,86,0.01,,,0.01,WUHU216HW,2013-05-17 14:52:00,
2013-05-17 07:57:00,55.1,51.0,29.69,North,0,0.0,0.0,86,0.01,,,0.01,WUHU216HW,2013-05-17 14:57:00,
2013-05-17 08:02:00,55.1,51.0,29.69,North,0,0.0,0.0,86,0.01,,,0.01,WUHU216HW,2013-05-17 15:02:00,
2013-05-17 08:07:00,55.1,51.0,29.69,North,0,0.0,0.0,86,0.01,,,0.01,WUHU216HW,2013-05-17 15:07:00,
2013-05-17 08:12:00,55.3,50.8,29.69,North,0,0.0,0.0,85,0.01,,,0.01,WUHU216HW,2013-05-17 15:12:00,
2013-05-17 08:17:00,55.3,50.8,29.69,North,0,0.0,0.0,85,0.01,,,0.01,WUHU216HW,2013-05-17 15:17:00,
2013-05-17 08:22:00,55.3,50.8,29.69,North,0,0.0,0.0,85,0.01,,,0.01,WUHU216HW,2013-05-17 15:22:00,
2013-05-17 08:27:00,55.4,50.9,29.69,North,0,0.0,0.0,85,0.01,,,0.01,WUHU216HW,2013-05-17 15:27:00,
2013-05-17 08:32:00,55.6,51.1,29.69,North,0,0.0,0.0,85,0.01,,,0.01,WUHU216HW,2013-05-17 15:32:00,
2013-05-17 08:37:00,55.8,51.3,29.69,North,0,0.0,0.0,85,0.01,,,0.01,WUHU216HW,2013-05-17 15:37:00,
2013-05-17 08:42:00,56.0,51.5,29.69,North,0,0.0,0.0,85,0.01,,,0.01,WUHU216HW,2013-05-17 15:42:00,
2013-05-17 08:47:00,56.2,51.7,29.69,North,0,0.0,0.0,85,0.01,,,0.01,WUHU216HW,2013-05-17 15:47:00,
2013-05-17 08:52:00,56.5,52.0,29.69,North,0,0.0,0.0,85,0.00,,,0.01,WUHU216HW,2013-05-17 15:52:00,
2013-05-17 08:57:00,56.7,52.2,29.69,North,0,0.0,0.0,85,0.00,,,0.01,WUHU216HW,2013-05-17 15:57:00,
2013-05-17 09:02:00,56.9,52.4,29.69,North,0,0.0,0.0,85,0.00,,,0.01,WUHU216HW,2013-05-17 16:02:00,
2013-05-17 09:07:00,56.9,51.8,29.69,North,0,0.0,0.0,83,0.00,,,0.01,WUHU216HW,2013-05-17 16:07:00,
2013-05-17 09:12:00,57.2,52.4,29.69,North,0,0.0,0.0,84,0.00,,,0.01,WUHU216HW,2013-05-17 16:12:00,
2013-05-17 09:17:00,57.2,52.4,29.69,North,0,0.0,0.0,84,0.00,,,0.01,WUHU216HW,2013-05-17 16:17:00,
2013-05-17 09:22:00,57.6,52.5,29.69,North,0,0.0,0.0,83,0.00,,,0.01,WUHU216HW,2013-05-17 16:22:00,
2013-05-17 09:27:00,58.0,52.8,29.69,North,0,0.0,0.0,83,0.00,,,0.01,WUHU216HW,2013-05-17 16:27:00,
2013-05-17 09:32:00,58.3,53.2,29.68,North,0,0.0,0.0,83,0.00,,,0.01,WUHU216HW,2013-05-17 16:32:00,
2013-05-17 09:37:00,58.7,53.2,29.69,North,0,0.0,0.0,82,0.00,,,0.01,WUHU216HW,2013-05-17 16:37:00,
2013-05-17 09:42:00,58.9,53.1,29.69,North,0,0.0,0.0,81,0.00,,,0.01,WUHU216HW,2013-05-17 16:42:00,
2013-05-17 09:47:00,59.0,52.9,29.69,North,0,0.0,0.0,80,0.00,,,0.01,WUHU216HW,2013-05-17 16:47:00,
2013-05-17 09:52:00,59.0,52.9,29.69,North,0,0.0,0.0,80,0.00,,,0.01,WUHU216HW,2013-05-17 16:52:00,
2013-05-17 09:57:00,59.2,52.7,29.69,North,0,0.0,0.0,79,0.00,,,0.01,WUHU216HW,2013-05-17 16:57:00,
2013-05-17 10:02:00,59.2,52.7,29.69,North,0,0.0,0.0,79,0.00,,,0.01,WUHU216HW,2013-05-17 17:02:00,
2013-05-17 10:07:00,59.4,52.9,29.69,North,0,0.0,0.0,79,0.00,,,0.01,WUHU216HW,2013-05-17 17:07:00,
2013-05-17 10:12:00,59.8,53.3,29.69,North,0,0.0,0.0,79,0.00,,,0.01,WUHU216HW,2013-05-17 17:12:00,
2013-05-17 10:17:00,60.1,53.6,29.69,North,0,0.0,0.0,79,0.00,,,0.01,WUHU216HW,2013-05-17 17:17:00,
2013-05-17 10:22:00,60.5,53.6,29.69,North,0,0.0,0.0,78,0.00,,,0.01,WUHU216HW,2013-05-17 17:22:00,
2013-05-17 10:27:00,60.7,53.5,29.69,North,0,0.0,0.0,77,0.00,,,0.01,WUHU216HW,2013-05-17 17:27:00,
2013-05-17 10:32:00,60.8,53.3,29.70,North,0,0.0,0.0,76,0.00,,,0.01,WUHU216HW,2013-05-17 17:32:00,
2013-05-17 10:37:00,61.0,53.5,29.70,North,0,0.0,0.0,76,0.00,,,0.01,WUHU216HW,2013-05-17 17:37:00,
2013-05-17 10:42:00,61.2,53.7,29.70,North,0,0.0,0.0,76,0.00,,,0.01,WUHU216HW,2013-05-17 17:42:00,
2013-05-17 10:47:00,61.6,53.6,29.70,North,0,0.0,0.0,75,0.00,,,0.01,WUHU216HW,2013-05-17 17:47:00,
2013-05-17 10:52:00,61.7,53.4,29.70,North,0,0.0,0.0,74,0.00,,,0.01,WUHU216HW,2013-05-17 17:52:00,
2013-05-17 10:57:00,61.9,53.6,29.70,North,0,0.0,0.0,74,0.00,,,0.01,WUHU216HW,2013-05-17 17:57:00,
2013-05-17 11:02:00,62.5,54.0,29.70,North,0,0.0,0.0,74,0.00,,,0.01,WUHU216HW,2013-05-17 18:02:00,
2013-05-17 11:07:00,62.8,54.4,29.70,North,0,0.0,0.0,74,0.00,,,0.01,WUHU216HW,2013-05-17 18:07:00,
2013-05-17 11:12:00,62.8,53.6,29.70,North,0,0.0,0.0,72,0.00,,,0.01,WUHU216HW,2013-05-17 18:12:00,
2013-05-17 11:17:00,62.6,53.1,29.70,North,0,0.0,0.0,71,0.00,,,0.01,WUHU216HW,2013-05-17 18:17:00,
2013-05-17 11:22:00,62.6,52.7,29.69,North,0,0.0,0.0,70,0.00,,,0.01,WUHU216HW,2013-05-17 18:22:00,
2013-05-17 11:27:00,62.8,53.3,29.70,North,0,0.0,0.0,71,0.00,,,0.01,WUHU216HW,2013-05-17 18:27:00,
2013-05-17 11:32:00,63.0,53.5,29.70,North,0,0.0,0.0,71,0.00,,,0.01,WUHU216HW,2013-05-17 18:32:00,
2013-05-17 11:37:00,63.0,52.7,29.70,North,0,0.0,0.0,69,0.00,,,0.01,WUHU216HW,2013-05-17 18:37:00,
2013-05-17 11:42:00,62.8,52.5,29.70,North,0,0.0,0.0,69,0.00,,,0.01,WUHU216HW,2013-05-17 18:42:00,
2013-05-17 11:47:00,62.8,52.9,29.70,North,0,0.0,0.0,70,0.00,,,0.01,WUHU216HW,2013-05-17 18:47:00,
2013-05-17 11:52:00,62.8,52.9,29.70,North,0,0.0,0.0,70,0.00,,,0.01,WUHU216HW,2013-05-17 18:52:00,
2013-05-17 11:57:00,62.6,51.9,29.70,North,0,0.0,0.0,68,0.00,,,0.01,WUHU216HW,2013-05-17 18:57:00,
2013-05-17 12:02:00,62.6,52.3,29.70,North,0,0.0,0.0,69,0.00,,,0.01,WUHU216HW,2013-05-17 19:02:00,
2013-05-17 12:07:00,62.5,52.2,29.70,North,0,0.0,0.0,69,0.00,,,0.01,WUHU216HW,2013-05-17 19:07:00,
2013-05-17 12:12:00,62.5,52.2,29.70,North,0,0.0,0.0,69,0.00,,,0.01,WUHU216HW,2013-05-17 19:12:00,
2013-05-17 12:17:00,62.3,51.6,29.70,North,0,0.0,0.0,68,0.00,,,0.01,WUHU216HW,2013-05-17 19:17:00,
2013-05-17 12:22:00,61.9,51.3,29.70,North,0,0.0,0.0,68,0.00,,,0.01,WUHU216HW,2013-05-17 19:22:00,
2013-05-17 12:27:00,61.9,51.3,29.70,North,0,0.0,0.0,68,0.00,,,0.01,WUHU216HW,2013-05-17 19:27:00,
2013-05-17 12:32:00,61.9,50.9,29.70,North,0,0.0,0.0,67,0.00,,,0.01,WUHU216HW,2013-05-17 19:32:00,
2013-05-17 12:37:00,61.7,51.1,29.71,North,0,0.0,0.0,68,0.00,,,0.01,WUHU216HW,2013-05-17 19:37:00,
2013-05-17 12:42:00,61.7,51.5,29.70,North,0,0.0,0.0,69,0.00,,,0.01,WUHU216HW,2013-05-17 19:42:00,
2013-05-17 12:47:00,61.6,51.8,29.70,North,0,0.0,0.0,70,0.00,,,0.01,WUHU216HW,2013-05-17 19:47:00,
2013-05-17 12:52:00,61.7,52.3,29.70,North,0,0.0,0.0,71,0.00,,,0.01,WUHU216HW,2013-05-17 19:52:00,
2013-05-17 12:57:00,61.7,51.9,29.70,North,0,0.0,0.0,70,0.00,,,0.01,WUHU216HW,2013-05-17 19:57:00,
2013-05-17 13:02:00,61.6,51.8,29.70,North,0,0.0,0.0,70,0.00,,,0.01,WUHU216HW,2013-05-17 20:02:00,
2013-05-17 13:07:00,61.6,52.1,29.71,North,0,0.0,0.0,71,0.00,,,0.01,WUHU216HW,2013-05-17 20:07:00,
2013-05-17 13:12:00,61.6,52.5,29.70,North,0,0.0,0.0,72,0.00,,,0.01,WUHU216HW,2013-05-17 20:12:00,
2013-05-17 13:17:00,61.6,53.2,29.71,North,0,0.0,0.0,74,0.00,,,0.01,WUHU216HW,2013-05-17 20:17:00,
2013-05-17 13:22:00,61.6,52.8,29.71,North,0,0.0,0.0,73,0.00,,,0.01,WUHU216HW,2013-05-17 20:22:00,
2013-05-17 13:27:00,61.4,53.0,29.70,North,0,0.0,0.0,74,0.00,,,0.01,WUHU216HW,2013-05-17 20:27:00,
2013-05-17 13:32:00,61.6,53.6,29.70,North,0,0.0,0.0,75,0.00,,,0.01,WUHU216HW,2013-05-17 20:32:00,
2013-05-17 13:37:00,61.6,53.9,29.71,North,0,0.0,0.0,76,0.00,,,0.01,WUHU216HW,2013-05-17 20:37:00,
2013-05-17 13:42:00,61.7,53.7,29.71,North,0,0.0,0.0,75,0.00,,,0.01,WUHU216HW,2013-05-17 20:42:00,
2013-05-17 13:47:00,61.6,53.6,29.70,North,0,0.0,0.0,75,0.00,,,0.01,WUHU216HW,2013-05-17 20:47:00,
2013-05-17 13:52:00,61.4,53.7,29.71,North,0,0.0,0.0,76,0.00,,,0.01,WUHU216HW,2013-05-17 20:52:00,
2013-05-17 13:57:00,61.2,53.7,29.71,North,0,0.0,0.0,76,0.00,,,0.01,WUHU216HW,2013-05-17 20:57:00,
2013-05-17 14:02:00,61.4,53.7,29.71,North,0,0.0,0.0,76,0.00,,,0.01,WUHU216HW,2013-05-17 21:02:00,
2013-05-17 14:07:00,61.6,53.9,29.71,North,0,0.0,0.0,76,0.00,,,0.01,WUHU216HW,2013-05-17 21:07:00,
2013-05-17 14:12:00,61.9,54.3,29.71,North,0,0.0,0.0,76,0.01,,,0.02,WUHU216HW,2013-05-17 21:12:00,
2013-05-17 14:17:00,61.7,53.7,29.71,North,0,0.0,0.0,75,0.01,,,0.02,WUHU216HW,2013-05-17 21:17:00,
2013-05-17 14:22:00,61.7,54.1,29.71,North,0,0.0,0.0,76,0.01,,,0.02,WUHU216HW,2013-05-17 21:22:00,
2013-05-17 14:27:00,61.6,53.9,29.71,North,0,0.0,0.0,76,0.01,,,0.02,WUHU216HW,2013-05-17 21:27:00,
2013-05-17 14:32:00,61.6,53.6,29.71,North,0,0.0,0.0,75,0.01,,,0.02,WUHU216HW,2013-05-17 21:32:00,
2013-05-17 14:37:00,61.4,53.7,29.71,North,0,0.0,0.0,76,0.01,,,0.02,WUHU216HW,2013-05-17 21:37:00,
2013-05-17 14:42:00,61.6,53.9,29.70,North,0,0.0,0.0,76,0.01,,,0.02,WUHU216HW,2013-05-17 21:42:00,
2013-05-17 14:47:00,61.7,53.4,29.70,North,0,0.0,0.0,74,0.01,,,0.02,WUHU216HW,2013-05-17 21:47:00,
2013-05-17 14:52:00,61.9,53.9,29.71,North,0,0.0,0.0,75,0.01,,,0.02,WUHU216HW,2013-05-17 21:52:00,
2013-05-17 14:57:00,61.9,53.6,29.71,North,0,0.0,0.0,74,0.01,,,0.02,WUHU216HW,2013-05-17 21:57:00,
2013-05-17 15:02:00,62.1,53.7,29.71,North,0,0.0,0.0,74,0.01,,,0.02,WUHU216HW,2013-05-17 22:02:00,
2013-05-17 15:07:00,62.3,53.8,29.71,North,0,0.0,0.0,74,0.01,,,0.02,WUHU216HW,2013-05-17 22:07:00,
2013-05-17 15:12:00,62.5,54.0,29.71,North,0,0.0,0.0,74,0.00,,,0.02,WUHU216HW,2013-05-17 22:12:00,
2013-05-17 15:17:00,62.6,53.8,29.71,North,0,0.0,0.0,73,0.00,,,0.02,WUHU216HW,2013-05-17 22:17:00,
2013-05-17 15:22:00,62.6,53.5,29.71,North,0,0.0,0.0,72,0.00,,,0.02,WUHU216HW,2013-05-17 22:22:00,
2013-05-17 15:27:00,62.3,53.5,29.70,North,0,0.0,0.0,73,0.00,,,0.02,WUHU216HW,2013-05-17 22:27:00,
2013-05-17 15:32:00,62.1,53.0,29.70,North,0,0.0,0.0,72,0.00,,,0.02,WUHU216HW,2013-05-17 22:32:00,
2013-05-17 15:37:00,62.1,53.4,29.70,North,0,0.0,0.0,73,0.00,,,0.02,WUHU216HW,2013-05-17 22:37:00,
2013-05-17 15:42:00,62.3,53.1,29.70,North,0,0.0,0.0,72,0.00,,,0.02,WUHU216HW,2013-05-17 22:42:00,
2013-05-17 15:47:00,62.5,53.3,29.70,North,0,0.0,0.0,72,0.00,,,0.02,WUHU216HW,2013-05-17 22:47:00,
2013-05-17 15:52:00,62.6,53.8,29.70,North,0,0.0,0.0,73,0.00,,,0.02,WUHU216HW,2013-05-17 22:52:00,
2013-05-17 15:57:00,62.8,52.9,29.70,North,0,0.0,0.0,70,0.00,,,0.02,WUHU216HW,2013-05-17 22:57:00,
2013-05-17 16:02:00,63.0,53.1,29.70,North,0,0.0,0.0,70,0.00,,,0.02,WUHU216HW,2013-05-17 23:02:00,
2013-05-17 16:07:00,63.2,53.3,29.70,North,0,0.0,0.0,70,0.00,,,0.02,WUHU216HW,2013-05-17 23:07:00,
2013-05-17 16:12:00,63.2,53.3,29.70,North,0,0.0,0.0,70,0.00,,,0.02,WUHU216HW,2013-05-17 23:12:00,
2013-05-17 16:17:00,63.4,53.5,29.69,North,0,0.0,0.0,70,0.00,,,0.02,WUHU216HW,2013-05-17 23:17:00,
2013-05-17 16:22:00,63.2,53.3,29.69,North,0,0.0,0.0,70,0.00,,,0.02,WUHU216HW,2013-05-17 23:22:00,
2013-05-17 16:27:00,63.4,53.5,29.69,North,0,0.0,0.0,70,0.00,,,0.02,WUHU216HW,2013-05-17 23:27:00,
2013-05-17 16:32:00,63.5,53.6,29.69,North,0,0.0,0.0,70,0.00,,,0.02,WUHU216HW,2013-05-17 23:32:00,
2013-05-17 16:37:00,63.7,53.8,29.70,North,0,0.0,0.0,70,0.00,,,0.02,WUHU216HW,2013-05-17 23:37:00,
2013-05-17 16:42:00,63.7,53.4,29.70,North,0,0.0,0.0,69,0.00,,,0.02,WUHU216HW,2013-05-17 23:42:00,
2013-05-17 16:47:00,63.4,53.0,29.70,North,0,0.0,0.0,69,0.00,,,0.02,WUHU216HW,2013-05-17 23:47:00,
2013-05-17 16:52:00,63.4,52.7,29.70,North,0,0.0,0.0,68,0.00,,,0.02,WUHU216HW,2013-05-17 23:52:00,
2013-05-17 16:57:00,63.4,52.7,29.70,North,0,0.0,0.0,68,0.00,,,0.02,WUHU216HW,2013-05-17 23:57:00,
2013-05-17 17:02:00,63.2,52.8,29.70,North,0,0.0,0.0,69,0.00,,,0.02,WUHU216HW,2013-05-18 00:02:00,
2013-05-17 17:07:00,63.2,52.5,29.70,North,0,0.0,0.0,68,0.00,,,0.02,WUHU216HW,2013-05-18 00:07:00,
2013-05-17 17:12:00,63.0,52.7,29.70,North,0,0.0,0.0,69,0.00,,,0.02,WUHU216HW,2013-05-18 00:12:00,
2013-05-17 17:17:00,62.6,51.9,29.70,North,0,0.0,0.0,68,0.00,,,0.02,WUHU216HW,2013-05-18 00:17:00,
2013-05-17 17:22:00,62.5,52.2,29.70,North,0,0.0,0.0,69,0.00,,,0.02,WUHU216HW,2013-05-18 00:22:00,
2013-05-17 17:27:00,62.3,52.0,29.70,North,0,0.0,0.0,69,0.00,,,0.02,WUHU216HW,2013-05-18 00:27:00,
2013-05-17 17:32:00,62.3,52.0,29.70,North,0,0.0,0.0,69,0.00,,,0.02,WUHU216HW,2013-05-18 00:32:00,
2013-05-17 17:37:00,62.3,52.4,29.70,North,0,0.0,0.0,70,0.00,,,0.02,WUHU216HW,2013-05-18 00:37:00,
2013-05-17 17:42:00,62.3,52.4,29.70,North,0,0.0,0.0,70,0.00,,,0.02,WUHU216HW,2013-05-18 00:42:00,
2013-05-17 17:47:00,62.3,52.4,29.70,North,0,0.0,0.0,70,0.00,,,0.02,WUHU216HW,2013-05-18 00:47:00,
2013-05-17 17:52:00,62.3,52.4,29.70,North,0,0.0,0.0,70,0.00,,,0.02,WUHU216HW,2013-05-18 00:52:00,
2013-05-17 17:57:00,62.3,52.4,29.70,North,0,0.0,0.0,70,0.00,,,0.02,WUHU216HW,2013-05-18 00:57:00,
2013-05-17 18:02:00,62.3,52.4,29.70,North,0,0.0,0.0,70,0.00,,,0.02,WUHU216HW,2013-05-18 01:02:00,
2013-05-17 18:07:00,62.3,52.4,29.70,North,0,0.0,0.0,70,0.00,,,0.02,WUHU216HW,2013-05-18 01:07:00,
2013-05-17 18:12:00,62.3,52.4,29.70,North,0,0.0,0.0,70,0.00,,,0.02,WUHU216HW,2013-05-18 01:12:00,
2013-05-17 18:17:00,62.5,52.2,29.70,North,0,0.0,0.0,69,0.00,,,0.02,WUHU216HW,2013-05-18 01:17:00,
2013-05-17 18:22:00,62.6,52.7,29.70,North,0,0.0,0.0,70,0.00,,,0.02,WUHU216HW,2013-05-18 01:22:00,
2013-05-17 18:27:00,62.6,52.7,29.70,North,0,0.0,0.0,70,0.00,,,0.02,WUHU216HW,2013-05-18 01:27:00,
2013-05-17 18:32:00,62.8,52.5,29.70,North,0,0.0,0.0,69,0.00,,,0.02,WUHU216HW,2013-05-18 01:32:00,
2013-05-17 18:37:00,62.6,52.3,29.70,North,0,0.0,0.0,69,0.00,,,0.02,WUHU216HW,2013-05-18 01:37:00,
2013-05-17 18:42:00,62.5,51.8,29.70,North,0,0.0,0.0,68,0.00,,,0.02,WUHU216HW,2013-05-18 01:42:00,
2013-05-17 18:47:00,62.5,52.2,29.70,North,0,0.0,0.0,69,0.00,,,0.02,WUHU216HW,2013-05-18 01:47:00,
2013-05-17 18:52:00,62.5,52.2,29.70,North,0,0.0,0.0,69,0.00,,,0.02,WUHU216HW,2013-05-18 01:52:00,
2013-05-17 18:57:00,62.3,52.0,29.70,North,0,0.0,0.0,69,0.00,,,0.02,WUHU216HW,2013-05-18 01:57:00,
2013-05-17 19:02:00,62.3,51.6,29.70,North,0,0.0,0.0,68,0.00,,,0.02,WUHU216HW,2013-05-18 02:02:00,
2013-05-17 19:07:00,61.9,51.7,29.70,North,0,0.0,0.0,69,0.00,,,0.02,WUHU216HW,2013-05-18 02:07:00,
2013-05-17 19:12:00,61.7,51.5,29.70,North,0,0.0,0.0,69,0.00,,,0.02,WUHU216HW,2013-05-18 02:12:00,
2013-05-17 19:17:00,61.6,51.4,29.70,North,0,0.0,0.0,69,0.00,,,0.02,WUHU216HW,2013-05-18 02:17:00,
2013-05-17 19:22:00,61.4,51.2,29.70,North,0,0.0,0.0,69,0.00,,,0.02,WUHU216HW,2013-05-18 02:22:00,
2013-05-17 19:27:00,61.4,51.2,29.70,North,0,0.0,0.0,69,0.00,,,0.02,WUHU216HW,2013-05-18 02:27:00,
2013-05-17 19:32:00,61.4,51.2,29.70,North,0,0.0,0.0,69,0.00,,,0.02,WUHU216HW,2013-05-18 02:32:00,
2013-05-17 19:37:00,61.2,51.0,29.70,North,0,0.0,0.0,69,0.00,,,0.02,WUHU216HW,2013-05-18 02:37:00,
2013-05-17 19:42:00,61.2,51.0,29.70,North,0,0.0,0.0,69,0.00,,,0.02,WUHU216HW,2013-05-18 02:42:00,
2013-05-17 19:47:00,61.0,50.9,29.71,North,0,0.0,0.0,69,0.00,,,0.02,WUHU216HW,2013-05-18 02:47:00,
2013-05-17 19:52:00,61.0,50.9,29.71,North,0,0.0,0.0,69,0.00,,,0.02,WUHU216HW,2013-05-18 02:52:00,
2013-05-17 19:57:00,60.8,50.7,29.71,North,0,0.0,0.0,69,0.00,,,0.02,WUHU216HW,2013-05-18 02:57:00,
2013-05-17 20:02:00,60.7,50.5,29.71,North,0,0.0,0.0,69,0.00,,,0.02,WUHU216HW,2013-05-18 03:02:00,
2013-05-17 20:07:00,60.5,50.3,29.71,North,0,0.0,0.0,69,0.00,,,0.02,WUHU216HW,2013-05-18 03:07:00,
2013-05-17 20:12:00,60.3,50.1,29.71,North,0,0.0,0.0,69,0.00,,,0.02,WUHU216HW,2013-05-18 03:12:00,
2013-05-17 20:17:00,60.1,50.0,29.71,North,0,0.0,0.0,69,0.00,,,0.02,WUHU216HW,2013-05-18 03:17:00,
2013-05-17 20:22:00,59.9,50.2,29.71,North,0,0.0,0.0,70,0.00,,,0.02,WUHU216HW,2013-05-18 03:22:00,
2013-05-17 20:27:00,59.8,50.0,29.71,North,0,0.0,0.0,70,0.00,,,0.02,WUHU216HW,2013-05-18 03:27:00,
2013-05-17 20:32:00,59.6,49.9,29.71,North,0,0.0,0.0,70,0.00,,,0.02,WUHU216HW,2013-05-18 03:32:00,
2013-05-17 20:37:00,59.4,50.0,29.71,North,0,0.0,0.0,71,0.00,,,0.02,WUHU216HW,2013-05-18 03:37:00,
2013-05-17 20:42:00,59.2,49.9,29.72,North,0,0.0,0.0,71,0.00,,,0.02,WUHU216HW,2013-05-18 03:42:00,
2013-05-17 20:47:00,59.0,49.7,29.72,North,0,0.0,0.0,71,0.00,,,0.02,WUHU216HW,2013-05-18 03:47:00,
2013-05-17 20:52:00,59.0,49.7,29.72,North,0,0.0,0.0,71,0.00,,,0.02,WUHU216HW,2013-05-18 03:52:00,
2013-05-17 20:57:00,58.9,49.5,29.72,North,0,0.0,0.0,71,0.00,,,0.02,WUHU216HW,2013-05-18 03:57:00,
2013-05-17 21:01:00,58.9,49.5,29.72,North,0,0.0,0.0,71,0.00,,,0.02,WUHU216HW,2013-05-18 04:01:00,
2013-05-17 21:06:00,58.7,49.7,29.72,North,0,0.0,0.0,72,0.00,,,0.02,WUHU216HW,2013-05-18 04:06:00,
2013-05-17 21:11:00,58.7,49.7,29.72,North,0,0.0,0.0,72,0.00,,,0.02,WUHU216HW,2013-05-18 04:11:00,
2013-05-17 21:16:00,58.5,49.5,29.73,North,0,0.0,0.0,72,0.00,,,0.02,WUHU216HW,2013-05-18 04:16:00,
2013-05-17 21:21:00,58.3,49.7,29.72,North,0,0.0,0.0,73,0.00,,,0.02,WUHU216HW,2013-05-18 04:21:00,
2013-05-17 21:26:00,58.3,49.7,29.73,North,0,0.0,0.0,73,0.00,,,0.02,WUHU216HW,2013-05-18 04:26:00,
2013-05-17 21:31:00,58.1,49.5,29.73,North,0,0.0,0.0,73,0.00,,,0.02,WUHU216HW,2013-05-18 04:31:00,
2013-05-17 21:36:00,58.1,49.5,29.73,North,0,0.0,0.0,73,0.00,,,0.02,WUHU216HW,2013-05-18 04:36:00,
2013-05-17 21:41:00,58.0,49.3,29.73,North,0,0.0,0.0,73,0.00,,,0.02,WUHU216HW,2013-05-18 04:41:00,
2013-05-17 21:46:00,58.0,49.3,29.73,North,0,0.0,0.0,73,0.00,,,0.02,WUHU216HW,2013-05-18 04:46:00,
2013-05-17 21:51:00,58.0,49.3,29.73,North,0,0.0,0.0,73,0.00,,,0.02,WUHU216HW,2013-05-18 04:51:00,
2013-05-17 21:56:00,58.0,49.7,29.73,North,0,0.0,0.0,74,0.00,,,0.02,WUHU216HW,2013-05-18 04:56:00,
2013-05-17 22:01:00,57.8,49.5,29.73,North,0,0.0,0.0,74,0.00,,,0.02,WUHU216HW,2013-05-18 05:01:00,
2013-05-17 22:06:00,57.8,49.5,29.74,North,0,0.0,0.0,74,0.00,,,0.02,WUHU216HW,2013-05-18 05:06:00,
2013-05-17 22:11:00,57.6,49.3,29.73,North,0,0.0,0.0,74,0.00,,,0.02,WUHU216HW,2013-05-18 05:11:00,
2013-05-17 22:16:00,57.6,49.3,29.74,North,0,0.0,0.0,74,0.00,,,0.02,WUHU216HW,2013-05-18 05:16:00,
2013-05-17 22:21:00,57.6,49.3,29.73,North,0,0.0,0.0,74,0.00,,,0.02,WUHU216HW,2013-05-18 05:21:00,
2013-05-17 22:26:00,57.6,49.3,29.74,North,0,0.0,0.0,74,0.00,,,0.02,WUHU216HW,2013-05-18 05:26:00,
2013-05-17 22:31:00,57.6,49.7,29.74,North,0,0.0,0.0,75,0.00,,,0.02,WUHU216HW,2013-05-18 05:31:00,
2013-05-17 22:36:00,57.6,49.7,29.74,North,0,0.0,0.0,75,0.00,,,0.02,WUHU216HW,2013-05-18 05:36:00,
2013-05-17 22:41:00,57.6,49.7,29.74,North,0,0.0,0.0,75,0.00,,,0.02,WUHU216HW,2013-05-18 05:41:00,
2013-05-17 22:46:00,57.6,49.7,29.74,North,0,0.0,0.0,75,0.00,,,0.02,WUHU216HW,2013-05-18 05:46:00,
2013-05-17 22:51:00,57.6,50.0,29.75,North,0,0.0,0.0,76,0.00,,,0.02,WUHU216HW,2013-05-18 05:51:00,
2013-05-17 22:56:00,57.6,50.0,29.75,North,0,0.0,0.0,76,0.00,,,0.02,WUHU216HW,2013-05-18 05:56:00,
2013-05-17 23:01:00,57.4,49.9,29.75,North,0,0.0,0.0,76,0.00,,,0.02,WUHU216HW,2013-05-18 06:01:00,
2013-05-17 23:06:00,57.4,49.9,29.74,North,0,0.0,0.0,76,0.00,,,0.02,WUHU216HW,2013-05-18 06:06:00,
2013-05-17 23:11:00,57.4,49.9,29.75,North,0,0.0,0.0,76,0.00,,,0.02,WUHU216HW,2013-05-18 06:11:00,
2013-05-17 23:16:00,57.2,49.7,29.75,North,0,0.0,0.0,76,0.00,,,0.02,WUHU216HW,2013-05-18 06:16:00,
2013-05-17 23:21:00,57.2,50.0,29.75,North,0,0.0,0.0,77,0.00,,,0.02,WUHU216HW,2013-05-18 06:21:00,
2013-05-17 23:26:00,57.2,50.4,29.75,North,0,0.0,0.0,78,0.00,,,0.02,WUHU216HW,2013-05-18 06:26:00,
2013-05-17 23:31:00,57.1,50.2,29.75,North,0,0.0,0.0,78,0.00,,,0.02,WUHU216HW,2013-05-18 06:31:00,
2013-05-17 23:36:00,56.9,50.0,29.75,North,0,0.0,0.0,78,0.00,,,0.02,WUHU216HW,2013-05-18 06:36:00,
2013-05-17 23:41:00,56.9,50.4,29.75,North,0,0.0,0.0,79,0.00,,,0.02,WUHU216HW,2013-05-18 06:41:00,
2013-05-17 23:46:00,56.7,50.2,29.75,North,0,0.0,0.0,79,0.00,,,0.02,WUHU216HW,2013-05-18 06:46:00,
2013-05-17 23:51:00,56.5,50.8,29.75,North,0,0.0,0.0,81,0.00,,,0.02,WUHU216HW,2013-05-18 06:51:00,
2013-05-17 23:56:00,56.5,50.0,29.76,North,0,0.0,0.0,79,0.00,,,0.02,WUHU216HW,2013-05-18 06:56:00,